Regional Weather Roundup
Issued by NWS

Home | Current Version | Previous Version | Text Only | Print | Product List | Glossary Off
Versions: 1 2 3 4 5 6 7 8 9 10 11 12 13 14 15 16 17 18 19 20 21 22 23 24 25 26 27 28 29 30 31 32 33 34 35 36 37 38 39 40 41 42 43 44 45 46 47 48 49 50

000
ASUS43 KDMX 210307
RWRIA

WEATHER ROUNDUP FOR IOWA
NATIONAL WEATHER SERVICE DES MOINES IA
900 PM CST SAT DEC 20 2014

NOTE: "FAIR" INDICATES FEW OR NO CLOUDS BELOW 12,000 FEET WITH NO
SIGNIFICANT WEATHER AND/OR OBSTRUCTIONS TO VISIBILITY.

* - THESE STATIONS ARE NOT NWS STATIONS...THUS NOT UNDER NWS
QUALITY CONTROL.  THEY ALSO DO NOT REPORT WEATHER SUCH
AS PRECIPITATION OR FOG.

IAZ001>003-012>014-020>022-031>034-043>046-210400-
   NORTHWEST IOWA

CITY           SKY/WX    TMP DP  RH WIND       PRES   REMARKS
CARROLL *      CLOUDY    32  32 100 S14       30.06F FOG     WCI  22
CHEROKEE *     CLOUDY    32  32 100 S13       30.04F FOG     WCI  22
DENISON *      CLOUDY    32  32 100 S12       30.03F FOG     WCI  23
LE MARS *      CLOUDY    32  32 100 S10       30.02F FOG     WCI  24
ORANGE CITY *  CLOUDY    32  30  93 S9        30.01F FOG     WCI  24
SHELDON *      CLOUDY    30  32 100 S16       30.00F FOG     WCI  19
SIOUX CITY     CLOUDY    33  31  92 S16       30.03F FOG     WCI  23
SPENCER        CLOUDY    32  29  88 S13       30.03F WCI  22
STORM LAKE *   CLOUDY    32  32 100 S13G20    30.04F FOG     WCI  22
$$

IAZ055>058-069>071-079>083-090>094-210400-
   SOUTHWEST IOWA

CITY           SKY/WX    TMP DP  RH WIND       PRES   REMARKS
ATLANTIC *     CLOUDY    32  32 100 S5        30.07F WCI  27
AUDUBON *      CLOUDY    32  28  86 S8        30.06F FOG     WCI  25
CLARINDA *     CLOUDY    36  36 100 SE3       30.10F FOG
COUNCIL BLFS * CLOUDY    32  32 100 SE8       30.04F FOG     WCI  25
CRESTON *      FOG       34  34 100 S8        30.08F VSB 0   WCI  27
HARLAN  *      CLOUDY    32  32 100 S8        30.09F FOG     WCI  25
LAMONI         FOG       36  35  96 S9        30.10F VSB 1/2 WCI  29
RED OAK *      CLOUDY    34  34 100 S6        30.08S FOG     WCI  29
SHENANDOAH *   CLOUDY    34  34 100 CALM      30.09S FOG
$$

IAZ047>049-059>061-072>074-084-210400-
   CENTRAL IOWA

CITY           SKY/WX    TMP DP  RH WIND       PRES   REMARKS
AMES           CLOUDY    33  32  96 SE7       30.11F FOG     WCI  27
ANKENY *       CLOUDY    36  34  93 S5        30.12S FOG     WCI  32
CHARITON *     CLOUDY    36  36 100 S9        30.11F FOG     WCI  29
DES MOINES     DRIZZLE   36  33  89 SE9       30.12S FOG     WCI  29
GRINNELL*      FOG       34  34 100 SE7       30.14S VSB 1/4 WCI  28
KNOXVILLE *    CLOUDY    36  34  93 S6        30.11F FOG     WCI  31
MARSHALLTOWN   FOG       33  32  96 SE9       30.12F VSB 1/4 WCI  25
PELLA *        CLOUDY    36  36 100 SE6       30.15F FOG     WCI  31
PERRY *        CLOUDY    34  34 100 SE6       30.09F FOG     WCI  29
$$

IAZ004>006-015-016-023>025-035-036-210400-
   NORTH CENTRAL IOWA

CITY           SKY/WX    TMP DP  RH WIND       PRES   REMARKS
ALGONA *       CLOUDY    32  32 100 S13G20    30.07F FOG     WCI  22
CLARION *      CLOUDY    32  32 100 S8        30.09F FOG     WCI  25
ESTHERVILLE    CLOUDY    31  29  92 S18       30.04F WCI  19
FORT DODGE *   CLOUDY    34  28  80 SE6       30.09F WCI  29
MASON CITY     FOG       31  30  96 SE9       30.11F VSB 3/4 WCI  23
FOREST CITY *  CLOUDY    32  30  93 SE9       30.09F FOG     WCI  24
IOWA FALLS *   SNOW      32  32 100 SE9       30.12S VSB 1/4 WCI  24
$$

IAZ007>011-017>019-026>030-037>042-050>054-066-210400-
   NORTHEAST IOWA

CITY           SKY/WX    TMP DP  RH WIND       PRES   REMARKS
CEDAR RAPIDS   CLOUDY    32  32 100 SE7       30.16F FOG     WCI  26
CHARLES CITY * CLOUDY    32  32 100 SE10      30.13S FOG     WCI  24
CLINTON *      CLOUDY    32  27  80 SE9       30.23S WCI  24
DECORAH *      CLOUDY    30  30 100 S9        30.14F FOG     WCI  22
DUBUQUE        CLOUDY    30  29  96 S8        30.18S FOG     WCI  22
MONTICELLO *   CLOUDY    32  32 100 SE7       30.18F FOG     WCI  26
OELWEIN *      FOG       32  32 100 SE13      30.15F VSB 3/4 WCI  22
WATERLOO       CLOUDY    32  32 100 SE12      30.14F FOG     WCI  23
$$

IAZ064-065-067-068-078-210400-
   EAST CENTRAL IOWA

CITY           SKY/WX    TMP DP  RH WIND       PRES   REMARKS
DAVENPORT      CLOUDY    33  28  81 S9        30.20F HAZE    WCI  25
IOWA CITY      CLOUDY    33  32  96 SE6       30.20S FOG     WCI  28
MT. PLEASANT * CLOUDY    34  34 100 SE7       30.18F FOG     WCI  28
MUSCATINE *    CLOUDY    36  32  87 SE7       30.20F FOG     WCI  30
QUAD CITIES    CLOUDY    33  29  85 S6        30.20F WCI  28
$$

IAZ062-063-075>077-085>089-095>099-210400-
   SOUTHEAST IOWA

CITY           SKY/WX    TMP DP  RH WIND       PRES   REMARKS
BURLINGTON     CLOUDY    35  34  96 S3        30.19S FOG
FAIRFIELD *    CLOUDY    36  34  93 S7        30.17F FOG     WCI  30
FORT MADISON * CLOUDY    36  36 100 SE6       30.20S FOG     WCI  31
KEOKUK *       CLOUDY    37  36  93 SE3       30.19S FOG
OSKALOOSA *    FOG       34  32  93 SE6       30.15F VSB 1/4 WCI  29
CENTERVILLE *  CLOUDY    36  36 100 S7        30.15F WCI  30
OTTUMWA        CLOUDY    35  34  96 SE6       30.15S FOG     WCI  30
WASHINGTON *   FOG       34  34 100 SE7       30.18S VSB 1   WCI  28
$$

ABBREVIATIONS USED IN REMARKS
   TC - TEMPERATURES IN CELSIUS
  WCI - WIND CHILL INDEX
   HX - HEAT INDEX
  VSB - VISIBILITY
$$




USA.gov is the U.S. government's official web portal to all federal, state and local government web resources and services.